This is the latest recevied weather packets stored in our database for station/object SP4MAZ-13. If no packets are shown the sender has not sent any weather packets the latest 10 day(s).
| Time | Temp. | Humidity | Pressure | Rain* | Wind** | Luminosity | Snow |
|---|---|---|---|---|---|---|---|
| 1777486893 | 5° C | 69% | 2147.4 hPa | - | - | - | - |
| 1777486589 | 4.44° C | 72% | 2147.4 hPa | - | - | - | - |
| 1777486286 | 4.44° C | 68% | 2147.4 hPa | - | - | - | - |
| 1777485982 | 5° C | 65% | 2147.4 hPa | - | - | - | - |
| 1777485679 | 5° C | 63% | 2147.4 hPa | - | - | - | - |
| 1777485375 | 5.56° C | 63% | 2147.4 hPa | - | - | - | - |
| 1777485072 | 6.11° C | 57% | 2147.4 hPa | - | - | - | - |
| 1777484769 | 6.11° C | 54% | 2147.4 hPa | - | - | - | - |
| 1777484465 | 6.67° C | 52% | 2147.4 hPa | - | - | - | - |
| 1777484162 | 6.67° C | 51% | 2147.4 hPa | - | - | - | - |
| 1777483858 | 7.22° C | 51% | 2147.4 hPa | - | - | - | - |
| 1777483555 | 6.67° C | 50% | 2147.4 hPa | - | - | - | - |
| 1777483252 | 6.11° C | 52% | 2147.4 hPa | - | - | - | - |
| 1777482948 | 6.11° C | 53% | 2147.4 hPa | - | - | - | - |
| 1777482645 | 5.56° C | 49% | 2147.4 hPa | - | - | - | - |
| 1777482341 | 6.11° C | 50% | 2147.4 hPa | - | - | - | - |
| 1777482038 | 6.11° C | 47% | 2147.4 hPa | - | - | - | - |
| 1777481735 | 6.11° C | 48% | 2147.4 hPa | - | - | - | - |
| 1777481431 | 6.11° C | 49% | 2147.4 hPa | - | - | - | - |
| 1777481128 | 6.67° C | 47% | 2147.4 hPa | - | - | - | - |
| 1777480824 | 6.67° C | 47% | 2147.4 hPa | - | - | - | - |
| 1777480522 | 6.67° C | 47% | 2147.4 hPa | - | - | - | - |
| 1777480218 | 6.67° C | 47% | 2147.4 hPa | - | - | - | - |
| 1777479914 | 6.67° C | 46% | 2147.4 hPa | - | - | - | - |
| 1777479611 | 6.67° C | 44% | 2147.4 hPa | - | - | - | - |
* Rain since midnight (hover to see other rain measurements)
** Current wind speed in m/s (hover to see current wind gust speed)